FW8061 Weather Reports


Display with metric or nautical units.
time (UTC)temp
F
wind
direction
speed
MPH
gust
MPH
rain 1hr
in
rain 24hr
in
rain mn
in
humidity
%
barometer
mb
20260502192020 46 183 3.0 6.0 0.00 0.00 0.00 85 1012.1
20260502191101 44 173 2.0 4.0 0.00 0.00 0.00 87 1012.1
20260502190019 44 167 2.0 5.0 0.00 0.00 0.00 87 1012.2
20260502185021 44 187 1.0 3.0 0.00 0.00 0.00 90 1012.3
20260502184020 43 320 1.0 3.0 0.00 0.00 0.00 91 1012.3
20260502183020 43 341 3.0 7.0 0.00 0.00 0.00 89 1012.3
20260502182017 45 323 5.0 10.0 0.00 0.00 0.00 85 1012.3
20260502181020 48 280 3.0 8.0 0.00 0.00 0.00 73 1011.9
20260502164039 46 317 1.0 2.0 0.00 0.00 0.00 76 1012.4
20260502163020 47 349 1.0 3.0 0.00 0.00 0.00 76 1012.4
20260502162019 46 298 1.0 3.0 0.00 0.00 0.00 77 1012.5
20260502161021 46 269 1.0 3.0 0.00 0.00 0.00 77 1012.6
20260502152038 43 168 1.0 4.0 0.00 0.00 0.00 82 1013.1
20260502151020 42 329 3.0 5.0 0.00 0.00 0.00 84 1013.2
20260502123041 39 350 1.0 2.0 0.00 0.00 0.00 87 1013.7
20260502122022 39 324 1.0 2.0 0.00 0.00 0.00 86 1013.7
20260502121021 39 357 2.0 3.0 0.00 0.00 0.00 86 1013.6
20260502115021 39 237 1.0 2.0 0.00 0.00 0.00 85 1013.6
20260502114121 39 315 1.0 2.0 0.00 0.00 0.00 85 1013.5
20260502113022 39 348 1.0 2.0 0.00 0.00 0.00 84 1013.4
20260502112025 39 346 2.0 2.0 0.00 0.00 0.00 84 1013.4
20260502111022 39 355 2.0 3.0 0.00 0.00 0.00 82 1013.3
20260502110022 39 351 2.0 3.0 0.00 0.00 0.00 81 1013.3
20260502105022 40 350 2.0 3.0 0.00 0.00 0.00 82 1013.3
20260502104022 40 346 2.0 2.0 0.00 0.00 0.00 81 1013.2
20260502103042 40 352 2.0 3.0 0.00 0.00 0.00 83 1013.2
20260502102023 40 349 2.0 2.0 0.00 0.00 0.00 82 1013.1
20260502101022 40 353 2.0 2.0 0.00 0.00 0.00 80 1013.0
20260502091023 40 234 1.0 1.0 0.00 0.00 0.00 79 1012.8
20260502071043 42 320 1.0 2.0 0.00 0.00 0.00 73 1012.4
20260502070023 43 271 1.0 2.0 0.00 0.00 0.00 72 1012.2
20260502065024 43 343 2.0 3.0 0.00 0.00 0.00 72 1012.1
20260502064024 44 333 2.0 3.0 0.00 0.00 0.00 71 1012.1
20260502063106 45 334 1.0 3.0 0.00 0.00 0.00 70 1012.0
20260502062025 45 350 3.0 4.0 0.00 0.00 0.00 67 1012.0
20260502061024 45 348 1.0 2.0 0.00 0.00 0.00 67 1011.9
20260502060025 45 342 0.0 2.0 0.00 0.00 0.00 68 1011.9
20260502055047 46 343 1.0 2.0 0.00 0.00 0.00 65 1012.0
20260502054027 46 347 2.0 2.0 0.00 0.00 0.00 64 1012.0
20260502053025 46 1 2.0 3.0 0.00 0.00 0.00 63 1012.0
20260502052025 47 354 2.0 4.0 0.00 0.00 0.00 64 1012.0
20260502051027 47 350 2.0 4.0 0.00 0.00 0.00 61 1011.9
20260502050025 47 307 1.0 3.0 0.00 0.00 0.00 59 1011.8
20260502045027 47 320 1.0 3.0 0.00 0.00 0.00 60 1011.8
20260502044026 46 219 2.0 2.0 0.00 0.00 0.00 60 1011.8
20260502043026 46 260 0.0 1.0 0.00 0.00 0.00 60 1011.8
20260502042047 46 311 1.0 2.0 0.00 0.00 0.00 60 1011.8
20260502041027 46 284 1.0 2.0 0.00 0.00 0.00 60 1011.8
20260502040027 46 233 1.0 2.0 0.00 0.00 0.00 60 1011.8
20260502035027 46 305 1.0 1.0 0.00 0.00 0.00 60 1011.8
20260502034030 46 307 1.0 2.0 0.00 0.00 0.00 61 1011.7
20260502033038 45 316 1.0 2.0 0.00 0.00 0.00 61 1011.7
20260502032020 45 222 1.0 2.0 0.00 0.00 0.00 62 1011.8
20260502031018 45 327 0.0 2.0 0.00 0.00 0.00 61 1011.8
20260502030038 46 279 0.0 2.0 0.00 0.00 0.00 62 1011.9
20260502025018 46 224 0.0 1.0 0.00 0.00 0.00 58 1011.8
20260502024019 47 322 1.0 2.0 0.00 0.00 0.00 58 1011.9
20260502023039 47 213 0.0 2.0 0.00 0.00 0.00 55 1011.9
20260502022020 48 231 1.0 2.0 0.00 0.00 0.00 54 1012.0
20260502021020 48 250 1.0 3.0 0.00 0.00 0.00 54 1012.0
20260502020019 48 322 1.0 2.0 0.00 0.00 0.00 53 1012.0
20260502015020 48 236 1.0 3.0 0.00 0.00 0.00 53 1012.0
20260502014019 48 296 1.0 3.0 0.00 0.00 0.00 52 1012.0
20260502013020 48 306 1.0 3.0 0.00 0.00 0.00 52 1012.0
20260502012020 49 293 1.0 3.0 0.00 0.00 0.00 51 1011.9
20260502011016 49 292 1.0 3.0 0.00 0.00 0.00 49 1011.8
20260502010020 49 312 2.0 5.0 0.00 0.00 0.00 47 1011.8
20260502005020 50 306 2.0 4.0 0.00 0.00 0.00 47 1011.8
20260502004018 50 303 3.0 5.0 0.00 0.00 0.00 47 1011.8
20260502003023 50 310 2.0 5.0 0.00 0.00 0.00 46 1011.7
20260502002018 50 305 2.0 4.0 0.00 0.00 0.00 46 1011.6
20260502001019 51 307 3.0 6.0 0.00 0.00 0.00 46 1011.4
20260502000021 51 298 2.0 5.0 0.00 0.00 0.00 48 1011.3
20260501235019 51 307 3.0 5.0 0.00 0.00 0.00 48 1011.2
20260501234019 51 232 3.0 6.0 0.00 0.00 0.00 47 1011.2
20260501233018 51 205 3.0 6.0 0.00 0.00 0.00 46 1011.1
20260501232018 52 238 2.0 5.0 0.00 0.00 0.00 47 1011.1
20260501231019 52 294 3.0 8.0 0.00 0.00 0.00 46 1011.0
20260501230039 52 271 3.0 7.0 0.00 0.00 0.00 46 1010.8
20260501225019 52 227 3.0 7.0 0.00 0.00 0.00 45 1010.8
20260501224019 52 283 3.0 9.0 0.00 0.00 0.00 44 1010.8
20260501223016 52 323 5.0 9.0 0.00 0.00 0.00 41 1010.7
20260501222020 53 305 5.0 10.0 0.00 0.00 0.00 39 1010.7
20260501221021 53 265 4.0 12.0 0.00 0.00 0.00 40 1010.7
20260501215020 53 301 3.0 9.0 0.00 0.00 0.00 40 1010.6
20260501214017 53 311 4.0 8.0 0.00 0.00 0.00 39 1010.5
20260501213021 54 312 4.0 9.0 0.00 0.00 0.00 39 1010.5
20260501212038 54 312 3.0 7.0 0.00 0.00 0.00 38 1010.4
20260501211018 55 268 3.0 7.0 0.00 0.00 0.00 38 1010.5
20260501210022 55 284 5.0 12.0 0.00 0.00 0.00 38 1010.5
20260501205021 56 312 4.0 9.0 0.00 0.00 0.00 39 1010.6
20260501204018 55 282 3.0 8.0 0.00 0.00 0.00 38 1010.5
20260501203041 55 294 4.0 8.0 0.00 0.00 0.00 40 1010.5
20260501202021 55 278 3.0 9.0 0.00 0.00 0.00 40 1010.5
20260501201019 54 260 4.0 9.0 0.00 0.00 0.00 40 1010.5
20260501200019 54 297 4.0 10.0 0.00 0.00 0.00 41 1010.5
20260501195019 53 307 3.0 8.0 0.00 0.00 0.00 43 1010.6
20260501194019 54 285 4.0 9.0 0.00 0.00 0.00 43 1010.6
20260501193039 55 308 4.0 8.0 0.00 0.00 0.00 43 1010.7